• In Hungary
  • List of Countries
  • For 7 days
  • Water Temperature
  • Satellite Maps
  • Weather Map
  • News
  • Weather Widgets
  • user-avatar
    Login

    Hourly Weather Mechlin

    Today, 20 June, Wednesday

    Time Temperature Precipitation Wind Pressure Humidity
    00:00 +17°C° 0 mm 2 mps 767 mmHg 94%
    01:00 +16°C° 0 mm 2 mps 767 mmHg 95%
    02:00 +16°C° 0 mm 2 mps 767 mmHg 95%
    03:00 +15°C° 0 mm 2 mps 766 mmHg 96%
    04:00 +16°C° 0 mm 2 mps 766 mmHg 93%
    05:00 +17°C° 0 mm 2 mps 766 mmHg 91%
    06:00 +18°C° 0 mm 3 mps 766 mmHg 89%
    07:00 +19°C° 0 mm 3 mps 766 mmHg 83%
    08:00 +21°C° 0 mm 3 mps 766 mmHg 78%
    09:00 +24°C° 0 mm 3 mps 766 mmHg 72%
    10:00 +23°C° 0 mm 4 mps 766 mmHg 71%
    11:00 +25°C° 0 mm 4 mps 766 mmHg 70%
    12:00 +25°C° 0 mm 4 mps 765 mmHg 69%
    13:00 +25°C° 0 mm 4 mps 765 mmHg 68%
    14:00 +25°C° 0 mm 4 mps 765 mmHg 68%
    15:00 +25°C° 0 mm 4 mps 765 mmHg 68%
    16:00 +25°C° 0 mm 3 mps 764 mmHg 70%
    17:00 +25°C° 0 mm 3 mps 764 mmHg 71%
    18:00 +24°C° 0 mm 3 mps 764 mmHg 73%
    19:00 +22°C° 0 mm 3 mps 764 mmHg 79%
    20:00 +20°C° 0 mm 2 mps 764 mmHg 85%
    21:00 +18°C° 0 mm 2 mps 764 mmHg 90%
    22:00 +18°C° 0 mm 2 mps 764 mmHg 91%
    23:00 +17°C° 0 mm 3 mps 764 mmHg 93%

    Tomorrow, 21 June, Thursday

    Time Temperature Precipitation Wind Pressure Humidity
    00:00 +16°C° 0 mm 3 mps 763 mmHg 94%
    01:00 +16°C° 0 mm 3 mps 763 mmHg 94%
    02:00 +16°C° 0 mm 3 mps 763 mmHg 94%
    03:00 +15°C° 0 mm 4 mps 763 mmHg 93%
    04:00 +15°C° 0 mm 4 mps 763 mmHg 91%
    05:00 +15°C° 0 mm 5 mps 763 mmHg 89%
    06:00 +15°C° 0 mm 5 mps 763 mmHg 86%
    07:00 +15°C° 0 mm 6 mps 764 mmHg 80%
    08:00 +16°C° 0 mm 7 mps 764 mmHg 74%
    09:00 +16°C° 0 mm 7 mps 765 mmHg 68%
    10:00 +16°C° 0 mm 7 mps 765 mmHg 63%
    11:00 +16°C° 0 mm 8 mps 765 mmHg 58%
    12:00 +17°C° 0 mm 8 mps 766 mmHg 53%
    13:00 +17°C° 0 mm 8 mps 766 mmHg 54%
    14:00 +16°C° 0 mm 8 mps 766 mmHg 54%
    15:00 +16°C° 0 mm 7 mps 767 mmHg 55%
    16:00 +15°C° 0 mm 7 mps 767 mmHg 58%
    17:00 +15°C° 0 mm 6 mps 767 mmHg 61%
    18:00 +14°C° 0 mm 6 mps 768 mmHg 65%
    19:00 +13°C° 0 mm 5 mps 768 mmHg 68%
    20:00 +12°C° 0 mm 4 mps 769 mmHg 72%
    21:00 +10°C° 0 mm 3 mps 769 mmHg 76%
    22:00 +10°C° 0 mm 3 mps 769 mmHg 76%
    23:00 +10°C° 0 mm 3 mps 769 mmHg 76%

    Day after tomorrow, 22 June, Friday

    Time Temperature Precipitation Wind Pressure Humidity
    00:00 +9°C° 0 mm 3 mps 769 mmHg 76%
    01:00 +9°C° 0 mm 3 mps 769 mmHg 75%
    02:00 +9°C° 0 mm 3 mps 769 mmHg 75%
    03:00 +9°C° 0 mm 3 mps 769 mmHg 75%
    04:00 +11°C° 0 mm 4 mps 769 mmHg 74%
    05:00 +12°C° 0 mm 5 mps 769 mmHg 73%
    06:00 +13°C° 0 mm 5 mps 769 mmHg 72%
    07:00 +13°C° 0 mm 5 mps 769 mmHg 71%
    08:00 +13°C° 0 mm 5 mps 769 mmHg 70%
    09:00 +14°C° 0 mm 5 mps 770 mmHg 70%
    10:00 +14°C° 0.1 mm 5 mps 770 mmHg 70%
    11:00 +14°C° 0.1 mm 6 mps 770 mmHg 69%
    12:00 +15°C° 0.1 mm 6 mps 770 mmHg 69%
    13:00 +15°C° 0.1 mm 6 mps 770 mmHg 68%
    14:00 +15°C° 0.1 mm 6 mps 770 mmHg 67%
    15:00 +16°C° 0.1 mm 6 mps 769 mmHg 67%
    16:00 +15°C° 0 mm 6 mps 770 mmHg 69%
    17:00 +15°C° 0 mm 5 mps 770 mmHg 70%
    18:00 +14°C° 0 mm 5 mps 770 mmHg 72%
    19:00 +13°C° 0 mm 4 mps 770 mmHg 76%
    20:00 +12°C° 0 mm 4 mps 770 mmHg 79%
    21:00 +11°C° 0 mm 3 mps 770 mmHg 83%
    22:00 +11°C° 0 mm 3 mps 770 mmHg 85%
    23:00 +10°C° 0 mm 2 mps 770 mmHg 86%

    23 June, Saturday

    Time Temperature Precipitation Wind Pressure Humidity
    00:00 +9°C° 0 mm 2 mps 770 mmHg 88%
    01:00 +9°C° 0 mm 2 mps 770 mmHg 89%
    02:00 +9°C° 0 mm 2 mps 770 mmHg 90%
    03:00 +8°C° 0 mm 2 mps 770 mmHg 91%
    04:00 +10°C° 0 mm 2 mps 770 mmHg 87%
    05:00 +12°C° 0 mm 2 mps 770 mmHg 83%
    06:00 +13°C° 0 mm 2 mps 770 mmHg 79%
    07:00 +14°C° 0 mm 2 mps 770 mmHg 76%
    08:00 +14°C° 0 mm 3 mps 770 mmHg 72%
    09:00 +16°C° 0 mm 3 mps 770 mmHg 68%
    10:00 +17°C° 0 mm 3 mps 770 mmHg 68%
    11:00 +17°C° 0 mm 3 mps 770 mmHg 67%
    12:00 +18°C° 0 mm 3 mps 769 mmHg 67%
    13:00 +18°C° 0.1 mm 4 mps 769 mmHg 65%
    14:00 +19°C° 0.1 mm 4 mps 769 mmHg 63%
    15:00 +19°C° 0.1 mm 4 mps 769 mmHg 61%
    16:00 +19°C° 0 mm 4 mps 769 mmHg 63%
    17:00 +18°C° 0 mm 3 mps 768 mmHg 65%
    18:00 +18°C° 0 mm 3 mps 768 mmHg 67%
    19:00 +16°C° 0 mm 3 mps 768 mmHg 71%
    20:00 +15°C° 0 mm 2 mps 769 mmHg 76%
    21:00 +13°C° 0 mm 2 mps 769 mmHg 81%
    22:00 +13°C° 0 mm 2 mps 769 mmHg 83%
    23:00 +12°C° 0 mm 1 mps 769 mmHg 86%

    24 June, Sunday

    Time Temperature Precipitation Wind Pressure Humidity
    00:00 +11°C° 0 mm 1 mps 768 mmHg 88%
    01:00 +11°C° 0 mm 1 mps 768 mmHg 89%
    02:00 +11°C° 0 mm 1 mps 768 mmHg 90%
    03:00 +10°C° 0 mm 1 mps 768 mmHg 91%
    04:00 +11°C° 0 mm 1 mps 768 mmHg 87%
    05:00 +12°C° 0 mm 1 mps 768 mmHg 84%
    06:00 +14°C° 0 mm 1 mps 768 mmHg 80%
    07:00 +15°C° 0 mm 1 mps 768 mmHg 74%
    08:00 +16°C° 0 mm 1 mps 768 mmHg 68%
    09:00 +18°C° 0 mm 2 mps 768 mmHg 62%
    10:00 +19°C° 0 mm 2 mps 768 mmHg 59%
    11:00 +20°C° 0 mm 2 mps 768 mmHg 55%
    12:00 +21°C° 0 mm 2 mps 768 mmHg 52%
    13:00 +21°C° 0 mm 2 mps 768 mmHg 52%
    14:00 +21°C° 0 mm 3 mps 767 mmHg 52%
    15:00 +22°C° 0 mm 3 mps 767 mmHg 52%
    16:00 +21°C° 0 mm 3 mps 767 mmHg 56%
    17:00 +21°C° 0 mm 3 mps 767 mmHg 60%
    18:00 +20°C° 0 mm 3 mps 767 mmHg 64%
    19:00 +18°C° 0 mm 3 mps 767 mmHg 69%
    20:00 +17°C° 0 mm 3 mps 768 mmHg 73%
    21:00 +15°C° 0 mm 2 mps 768 mmHg 78%
    22:00 +15°C° 0 mm 2 mps 768 mmHg 80%
    23:00 +14°C° 0 mm 2 mps 768 mmHg 82%

    25 June, Monday

    Time Temperature Precipitation Wind Pressure Humidity
    00:00 +13°C° 0 mm 2 mps 768 mmHg 84%
    01:00 +13°C° 0 mm 2 mps 768 mmHg 86%
    02:00 +13°C° 0 mm 2 mps 768 mmHg 87%
    03:00 +12°C° 0 mm 2 mps 768 mmHg 89%
    04:00 +13°C° 0 mm 2 mps 767 mmHg 85%
    05:00 +14°C° 0 mm 2 mps 767 mmHg 81%
    06:00 +15°C° 0 mm 2 mps 767 mmHg 78%
    07:00 +17°C° 0 mm 3 mps 767 mmHg 72%
    08:00 +19°C° 0 mm 3 mps 767 mmHg 67%
    09:00 +20°C° 0 mm 3 mps 767 mmHg 62%
    10:00 +22°C° 0 mm 3 mps 767 mmHg 59%
    11:00 +24°C° 0 mm 3 mps 767 mmHg 56%
    12:00 +25°C° 0 mm 3 mps 767 mmHg 54%
    13:00 +25°C° 0 mm 4 mps 767 mmHg 53%
    14:00 +26°C° 0 mm 4 mps 766 mmHg 53%
    15:00 +26°C° 0 mm 4 mps 766 mmHg 53%
    16:00 +25°C° 0 mm 4 mps 766 mmHg 56%
    17:00 +25°C° 0 mm 4 mps 766 mmHg 59%
    18:00 +24°C° 0 mm 3 mps 766 mmHg 62%
    19:00 +21°C° 0 mm 3 mps 766 mmHg 65%
    20:00 +20°C° 0 mm 3 mps 766 mmHg 68%
    21:00 +18°C° 0 mm 3 mps 766 mmHg 71%
    22:00 +17°C° 0 mm 3 mps 766 mmHg 73%
    23:00 +16°C° 0 mm 3 mps 766 mmHg 75%
    Show more